Flag for U.S.A. Weather past 2 weeks in Springfield, Massachusetts, U.S.A.

Now
72 °F

Clear.


Feels Like: 72 °F
Forecast: 69 / 89 °F
Wind: 7 mph from South

Location: Barnes Municipal Airport

Current Time: Jul 23, 2014 at 2:53:32 AM

Latest Report: Jul 23, 2014 at 1:53 AM


Visibility: 10 mi

Pressure: 29.97 "Hg

Humidity: 81%

Dew point: 66 °F

Location of SpringfieldLocation

Historic Weather in Springfield — Graph

°F

Springfield temperature yesterday

Maximum temperature yesterday: 86 °F (at 12:53 PM)
Minimum temperature yesterday: 61 °F (at 5:53 AM)
Average temperature yesterday: 72 °F

Past Weeks' High & Low Weather Summary

 TemperatureHumidityPressure
High89 °F (Jul 8, 4:53 PM)94% (Jul 14, 6:53 AM)30.27 "Hg (Jul 14, 6:53 AM)
Low56 °F (Jul 18, 5:53 AM)29% (Jul 18, 3:53 PM)29.64 "Hg (Jul 8, 10:53 PM)
Average72 °F71%30.02 "Hg
* Reported Jul 8 12:53 AM — Jul 23 12:53 AM, Springfield, Weather by CustomWeather, © 2014

Note: Actual official high and low records may vary slightly from our data, if they occured in-between our weather recording intervals... More about our weather records

Advertising

Springfield weather history for previous 24 hours

 ConditionsComfort  
Time TempWeatherWind HumidityBarometerVisibility
12:53 AM
Jul 23
73 °FClear.7 mph81%29.98 "Hg10 mi
11:53 PM
Jul 22
74 °FClear.6 mph79%29.99 "Hg10 mi
10:53 PM77 °FClear.9 mph74%30.00 "Hg10 mi
9:53 PM79 °FClear.9 mph72%30.01 "Hg10 mi
8:53 PM80 °FSunny.10 mph67%30.01 "Hg10 mi
7:53 PM83 °FScattered clouds.8 mph61%30.01 "Hg10 mi
12:53 PM86 °FSunny.5 mph55%30.09 "Hg10 mi
11:53 AM84 °FSunny.5 mph61%30.11 "Hg10 mi
10:53 AM80 °FSunny.No wind64%30.12 "Hg10 mi
9:53 AM76 °FSunny.No wind72%30.13 "Hg10 mi
8:53 AM72 °FSunny.3 mph76%30.14 "Hg10 mi
7:53 AM68 °FSunny.3 mph84%30.16 "Hg10 mi
6:53 AM64 °FSunny.No wind90%30.15 "Hg7 mi
5:53 AM61 °FFog.No wind93%30.15 "Hg5 mi
4:53 AM62 °FClear.No wind93%30.14 "Hg9 mi
3:53 AM62 °FPassing clouds.No wind93%30.14 "Hg9 mi
2:53 AM64 °FClear.3 mph90%30.14 "Hg10 mi
Weather by CustomWeather, © 2014

See weather overviewHow to use our weather pages